User: anonymous   Login
Location: Unspecified
(0.0000°N, 0.0000°E)
Time: 08:59:25
(UTC+00:00)
Language:

TET - Orbit

View from above orbital plane
View from above orbital plane
View from above satellite
View from above satellite

Ground track
Ground track

The orbit data is extracted from the following two-line orbital elements,

1 38710U 12039D   20216.83679062 +.00002668 +00000-0 +46999-4 0  9999
2 38710 097.5984 246.9310 0002945 048.3007 311.8496 15.51443090451239
Epoch (UTC): 03 August 2020 20:04:58
Eccentricity: 0.0002945
inclination: 97.5984°
perigee height: 410 km
apogee height: 414 km
right ascension of ascending node: 246.9310°
argument of perigee: 48.3007°
revolutions per day: 15.51443090
mean anomaly at epoch: 311.8496°
orbit number at epoch: 45123

The dashed part of the orbit path shows where the satellite is in the earth's shadow,  

DLR